Retour au catalogue

STARLINK-34973

ActifCommunicationsSSO
NORAD 65250·PAYLOAD·🇺🇸 United States

Lancé Aug 18, 2025 depuis Vandenberg Space Force Base

Loading…

Prochains Passages (prochaines 24 heures)

TLE

FraisSource: CelesTrak SupGP

Époque: Sep 15, 2026, 03:31 UTC

1 65250C 25179R   26258.14701389 -.00008205  00000+0 -25471-3 0  2584
2 65250  97.2833 297.4830 0001286  84.9255  65.2956 15.33443364    15

Suivez STARLINK-34973 en temps réel avec AllMySat

Download on the App Store